[[{"header":{"parameterUnit":"m.s-1","parameterCategory":1,"la1":30.2991,"la2":30.254,"lo1":-89.0895,"lo2":-89.0444,"dy":0.0017,"dx":0.0017,"nx":28,"ny":28,"refTime":"2025-04-19T03:00:00:Z","depth":0,"parameterNumber":2,"parameterNumberName":"U-component_of_WINDS"},"data":[0,0,0,0,0,0,0,0,0,0,0,0,0,0,0,0,0,0,0,0,0,0,0,0,0,0,0,0,0,0,0,0,0,0,0,0,0,0,0,0,0,0,0,0,0,0,0,0,0,0,0,0,0,0,0,0,0,0,-4.0673,-4.0673,0,-4.0722,-4.0722,-4.0723,-4.0678,-4.0677,-4.0675,-4.0673,-4.0723,-4.0726,-4.0729,0,0,0,0,0,0,0,0,0,0,0,0,0,-4.0541,-4.0544,-4.0673,-4.0673,-4.0674,-4.0722,-4.0722,-4.0723,-4.0679,-4.0677,-4.0674,-4.0672,-4.0722,-4.0725,-4.0729,0,0,0,0,0,0,0,0,0,0,0,0,0,-4.0595,-4.0545,-4.0673,-4.0658,-4.0657,-4.0722,-4.0722,-4.0723,-4.0679,-4.0677,-4.0674,-4.0671,-4.0721,-4.0725,-4.073,-4.0812,0,0,-4.0743,-4.0745,0,0,0,0,0,0,0,0,-4.0592,-4.06,-4.0659,-4.0659,-4.0658,-4.0691,-4.0694,-4.0753,-4.068,-4.0671,-4.0673,-4.067,-4.0715,-4.0719,-4.0735,-4.0814,-4.0816,-4.0744,-4.0746,-4.0748,-4.075,0,0,0,0,0,0,0,-4.0588,-4.0598,-4.0692,-4.066,-4.0659,-4.0649,-4.0653,-4.0705,-4.0707,-4.0671,-4.0668,-4.0675,-4.0714,-4.073,-4.0735,-4.0817,-4.0744,-4.0748,-4.075,-4.0752,-4.0965,-4.0968,0,0,0,0,0,0,-4.0586,-4.0595,-4.0691,-4.0694,-4.0618,-4.0653,-4.0658,-4.0683,-4.0707,-4.0707,-4.0677,-4.0672,-4.0724,-4.073,-4.0737,-4.0833,-4.0748,-4.0753,-4.0755,-4.0963,-4.0966,-4.0969,0,0,0,0,0,0,-4.0584,-4.0595,-4.0689,-4.0643,-4.0654,-4.0658,-4.0687,-4.0686,-4.0702,-4.0711,-4.0711,-4.0693,-4.0722,-4.0731,-4.0793,-4.0834,-4.0755,-4.0759,-4.0959,-4.0964,-4.0968,-4.1028,0,0,0,0,0,0,-4.058,-4.0594,-4.0625,-4.0644,-4.0657,-4.0744,-4.0689,-4.0689,-4.071,-4.0705,-4.0726,-4.0727,-4.0721,-4.0787,-4.0798,-4.0839,-4.0762,-4.0955,-4.0961,-4.0966,-4.1022,-4.1034,-4.1044,0,0,0,0,0,-4.0575,-4.064,-4.0627,-4.0639,-4.0696,-4.0747,-4.0754,-4.0745,-4.0714,-4.0745,-4.075,-4.0727,-4.0829,-4.0794,-4.0806,-4.0849,-4.0953,-4.0959,-4.0966,-4.1017,-4.1031,-4.1043,0,0,0,0,0,0,-4.0626,-4.0643,-4.0628,-4.0701,-4.0723,-4.0739,-4.0778,-4.076,-4.0791,-4.0785,-4.0772,-4.0778,-4.0844,-4.0853,-4.0813,-4.093,-4.0886,-4.0895,-4.092,-4.0934,-4.0945,-4.094,-4.0766,0,0,0,0,0,-4.0646,-4.0685,-4.0698,-4.0761,-4.0773,-4.0774,-4.0796,-4.0787,-4.0809,-4.0818,-4.0828,-4.085,-4.0887,-4.0911,-4.0946,-4.1024,-4.1028,-4.106,-4.1071,-4.108,-4.1087,-4.1128,-4.1143,-4.0991,-4.0991,-4.0991,0,0,-4.0687,-4.0701,-4.0726,-4.0772,-4.0787,-4.0829,-4.0782,-4.0827,-4.0858,-4.0825,-4.0884,-4.0893,-4.0916,-4.0987,-4.1018,-4.0997,-4.113,-4.1088,-4.1095,-4.1098,-4.1137,-4.1151,-4.1164,-4.0996,-4.0995,-4.0994,0,0,-4.0782,-4.0797,-4.0851,-4.0868,-4.0892,-4.0893,-4.0906,-4.0925,-4.0929,-4.0989,-4.0965,-4.1001,-4.1066,-4.1083,-4.1101,-4.1204,-4.1183,-4.1216,-4.1272,-4.1312,-4.1324,-4.1334,-4.137,-4.1383,-4.1224,-4.1224,-4.1225,0,-4.0829,-4.089,-4.0881,-4.0928,-4.0949,-4.0921,-4.0976,-4.0993,-4.1028,-4.1042,-4.1018,-4.1098,-4.1112,-4.1186,-4.1211,-4.1227,-4.1241,-4.1212,-4.1323,-4.1333,-4.1343,-4.1377,-4.139,-4.1228,-4.1228,-4.1227,-4.1227,0,-4.0947,-4.099,-4.103,-4.1064,-4.109,-4.1141,-4.1139,-4.1166,-4.1156,-4.1159,-4.122,-4.1237,-4.1274,-4.1291,-4.1282,-4.1364,-4.135,-4.1325,-4.128,-4.1361,-4.1393,-4.1406,-4.1233,-4.1232,-4.1231,-4.123,0,0,-4.1073,-4.1102,-4.1117,-4.1132,-4.1158,-4.119,-4.1241,-4.1277,-4.13,-4.1326,-4.1366,-4.1422,-4.1399,-4.1419,-4.1412,-4.1448,-4.1527,-4.1418,-4.1418,-4.1436,-4.1617,-4.1634,-4.1649,-4.1514,-4.1517,-4.1519,-4.1615,0,-4.1167,-4.1253,-4.1247,-4.1328,-4.1367,-4.1343,-4.1386,-4.1407,-4.1411,-4.1445,-4.1451,-4.149,-4.1457,-4.1469,-4.1504,-4.151,-4.1563,-4.1503,-4.1551,-4.1553,-4.1543,-4.1666,-4.1684,-4.1774,-4.1627,-4.1629,-4.1631,0,-4.1288,-4.1318,-4.1403,-4.1423,-4.1439,-4.1478,-4.1511,-4.1544,-4.1567,-4.1568,-4.1591,-4.1578,-4.1629,-4.1585,-4.1654,-4.1613,-4.1633,-4.1639,-4.1643,-4.1645,-4.1595,-4.167,-4.1802,-4.1815,-4.165,-4.1649,-4.1647,0,-4.137,-4.1431,-4.1489,-4.1503,-4.1529,-4.1556,-4.1568,-4.1589,-4.1611,-4.1641,-4.1655,-4.169,-4.1709,-4.1736,-4.1733,-4.1702,-4.1803,-4.1759,-4.1804,-4.1804,-4.1824,-4.1823,-4.196,-4.1841,-4.1841,-4.1841,-4.184,0,-4.1474,-4.1527,-4.1526,-4.1562,-4.162,-4.1613,-4.1671,-4.168,-4.1698,-4.1735,-4.1718,-4.1753,-4.1747,-4.1783,-4.1781,-4.1838,-4.1847,-4.1848,-4.1847,-4.1849,-4.1848,-4.1859,-4.1852,-4.1844,-4.1843,-4.1843,-4.1842,0,-4.1574,-4.1576,-4.1637,-4.1657,-4.1663,-4.1705,-4.1721,-4.1755,-4.1759,-4.1806,-4.1817,-4.1823,-4.1863,-4.1864,-4.1911,-4.1909,-4.1978,-4.1971,-4.197,-4.1967,-4.2012,-4.2007,-4.2159,-4.2178,-4.2049,-4.2051,-4.2052,0,-4.1639,-4.1679,-4.1703,-4.1726,-4.174,-4.1778,-4.1801,-4.1796,-4.1821,-4.185,-4.1881,-4.192,-4.1951,-4.2017,-4.2026,-4.2061,-4.2053,-4.2104,-4.2058,-4.2059,-4.2052,-4.2049,-4.2052,-4.2112,-4.2114,-4.2115,-4.2116,0,-4.1755,-4.1754,-4.1788,-4.1822,-4.185,-4.1877,-4.1901,-4.1922,-4.192,-4.1949,-4.199,-4.2014,-4.2062,-4.2101,-4.2136,-4.2148,-4.2132,-4.2131,-4.2143,-4.2144,-4.2141,-4.2141,-4.1992,-4.2127,-4.2126,-4.2125,-4.2124,-4.2124,-4.1838,-4.1872,-4.1894,-4.1932,-4.195,-4.1974,-4.2007,-4.2015,-4.2049,-4.2088,-4.2083,-4.2129,-4.2152,-4.2197,-4.2212,-4.2248,-4.223,-4.2248,-4.2252,-4.2256,-4.226,-4.2138,-4.2255,-4.2255,-4.2254,-4.2254,-4.2254,0,-4.1952,-4.1965,-4.2,-4.2035,-4.2065,-4.2048,-4.2075,-4.2101,-4.2142,-4.2164,-4.2195,-4.2243,-4.2281,-4.2293,-4.233,-4.2356,-4.235,-4.2366,-4.2362,-4.2365,-4.2275,-4.226,-4.237,-4.237,-4.237,-4.237,-4.237,-4.237,-4.2014,-4.207,-4.2072,-4.2137,-4.215,-4.2195,-4.2211,-4.2233,-4.2251,-4.2305,-4.2336,-4.2344,-4.2362,-4.24,-4.2434,-4.2437,-4.2451,-4.247,-4.2469,-4.2384,-4.2372,-4.2361,-4.2346,-4.2473,-4.2473,-4.2556,-4.2557,-4.2558]},{"header":{"parameterUnit":"m.s-1","parameterCategory":1,"la1":30.2991,"la2":30.254,"lo1":-89.0895,"lo2":-89.0444,"dy":0.0017,"dx":0.0017,"nx":28,"ny":28,"refTime":"2025-04-19T03:00:00:Z","depth":0,"parameterNumber":3,"parameterNumberName":"V-component_of_WINDS"},"data":[0,0,0,0,0,0,0,0,0,0,0,0,0,0,0,0,0,0,0,0,0,0,0,0,0,0,0,0,0,0,0,0,0,0,0,0,0,0,0,0,0,0,0,0,0,0,0,0,0,0,0,0,0,0,0,0,0,0,3.0237,3.0238,0,3.0345,3.0346,3.0348,3.0417,3.0417,3.0418,3.0418,3.0524,3.0526,3.0528,0,0,0,0,0,0,0,0,0,0,0,0,0,3.0086,3.0088,3.0237,3.0238,3.024,3.0345,3.0346,3.0348,3.0417,3.0417,3.0418,3.0418,3.0523,3.0526,3.0529,0,0,0,0,0,0,0,0,0,0,0,0,0,3.0168,3.0089,3.0237,3.0287,3.0292,3.0345,3.0346,3.0348,3.0417,3.0417,3.0418,3.0419,3.0522,3.0525,3.0529,3.0538,0,0,3.054,3.0541,0,0,0,0,0,0,0,0,3.0163,3.0173,3.0278,3.0283,3.029,3.0368,3.0332,3.0412,3.0417,3.0369,3.0418,3.0419,3.0471,3.0479,3.0498,3.0543,3.0548,3.054,3.0542,3.0544,3.0545,0,0,0,0,0,0,0,3.0157,3.0169,3.028,3.0279,3.0287,3.0303,3.0315,3.0347,3.0415,3.0374,3.0379,3.0391,3.0474,3.0494,3.0501,3.0549,3.054,3.0543,3.0546,3.0547,3.0609,3.0609,0,0,0,0,0,0,3.0144,3.0164,3.0276,3.0283,3.0227,3.0305,3.0319,3.0342,3.0415,3.0427,3.039,3.0394,3.0487,3.0496,3.0504,3.0522,3.0544,3.0547,3.0549,3.061,3.0609,3.0608,0,0,0,0,0,0,3.0141,3.0154,3.0272,3.0225,3.0241,3.0307,3.0333,3.0344,3.0364,3.0428,3.044,3.0398,3.0488,3.0499,3.053,3.0526,3.0549,3.0552,3.061,3.0609,3.0609,3.0555,0,0,0,0,0,0,3.0136,3.0152,3.0157,3.0225,3.0243,3.0297,3.0332,3.0346,3.0371,3.0376,3.0438,3.0449,3.049,3.0524,3.0534,3.0532,3.0555,3.0611,3.061,3.0609,3.0558,3.0553,3.0549,0,0,0,0,0,3.0131,3.0136,3.0157,3.017,3.0252,3.0296,3.0307,3.0355,3.037,3.0375,3.0416,3.0447,3.0525,3.0527,3.0538,3.0537,3.0611,3.061,3.0609,3.056,3.0554,3.0549,0,0,0,0,0,0,3.0065,3.0146,3.017,3.0198,3.024,3.0308,3.0316,3.0347,3.0384,3.0388,3.0444,3.0457,3.0482,3.0512,3.0513,3.0551,3.0572,3.0573,3.053,3.0525,3.0521,3.0514,3.0558,0,0,0,0,0,3.0054,3.0085,3.0154,3.0171,3.0192,3.025,3.0271,3.0305,3.035,3.0368,3.0411,3.0452,3.0486,3.0507,3.0541,3.0562,3.0577,3.0567,3.0562,3.0558,3.0559,3.0573,3.057,3.0605,3.0605,3.0605,0,0,3.0031,3.0079,3.0095,3.016,3.0196,3.0226,3.0264,3.0294,3.0317,3.0371,3.0405,3.0437,3.0487,3.0513,3.0526,3.0538,3.0552,3.0557,3.0553,3.0556,3.0572,3.0568,3.0565,3.0604,3.0604,3.0604,0,0,3.0005,3.0044,3.0065,3.0101,3.0157,3.0196,3.02,3.0264,3.0289,3.0323,3.0365,3.0392,3.0449,3.0483,3.0508,3.0496,3.0526,3.0505,3.0482,3.0495,3.0492,3.049,3.0487,3.0486,3.0505,3.0505,3.0505,0,2.997,3.0019,3.0071,3.01,3.0127,3.0179,3.02,3.0232,3.0295,3.0312,3.0325,3.0399,3.0436,3.0471,3.0469,3.0486,3.0493,3.0499,3.0489,3.0487,3.0486,3.0484,3.0482,3.0502,3.0502,3.0503,3.0503,0,2.9973,3.0006,3.0015,3.0078,3.0106,3.0129,3.0185,3.0206,3.0237,3.0275,3.0309,3.0355,3.0401,3.0411,3.044,3.0451,3.0457,3.0478,3.0501,3.0479,3.0478,3.0478,3.0498,3.0499,3.05,3.0501,0,0,2.9909,3.0002,3.0004,3.0034,3.0099,3.0125,3.0151,3.0198,3.0216,3.0257,3.0281,3.0328,3.0349,3.0377,3.0411,3.0422,3.0412,3.0443,3.0445,3.0437,3.0428,3.0412,3.0411,3.0431,3.0431,3.0431,3.0424,0,2.9895,2.9948,2.9996,3.003,3.0062,3.0112,3.0135,3.0177,3.0212,3.0243,3.028,3.0314,3.0338,3.0356,3.0369,3.041,3.0411,3.0411,3.0454,3.0455,3.0442,3.041,3.0394,3.0385,3.0424,3.0424,3.0424,0,2.9886,2.9928,2.9966,3.003,3.0045,3.0065,3.0112,3.0141,3.0189,3.0214,3.0246,3.0281,3.0311,3.0329,3.037,3.0369,3.0389,3.0411,3.0412,3.0419,3.0439,3.0418,3.0383,3.0382,3.0423,3.0423,3.0423,0,2.9838,2.9904,2.9936,2.9959,3.0034,3.0047,3.0078,3.0127,3.0152,3.0193,3.021,3.0252,3.0275,3.0307,3.0353,3.0362,3.0389,3.0411,3.0411,3.0409,3.0415,3.0415,3.0385,3.0425,3.0425,3.0425,3.0425,0,2.9819,2.984,2.9916,2.9936,2.9961,3.0016,3.0039,3.0074,3.0118,3.0144,3.0189,3.0212,3.0271,3.0301,3.0337,3.0366,3.0376,3.0396,3.0406,3.0394,3.0391,3.0409,3.0411,3.0425,3.0425,3.0425,3.0425,0,2.9771,2.9822,2.9861,2.9928,2.9946,2.9962,3.002,3.004,3.0078,3.0111,3.0122,3.0181,3.0219,3.0268,3.032,3.0344,3.037,3.0384,3.0355,3.0361,3.0358,3.0358,3.034,3.0341,3.0378,3.0378,3.0377,0,2.9756,2.9774,2.9844,2.9867,2.9897,2.9932,2.9959,3.0012,3.0038,3.0095,3.0108,3.015,3.0187,3.0246,3.0292,3.0333,3.0349,3.034,3.0355,3.0343,3.0351,3.035,3.0352,3.0336,3.0335,3.0335,3.0334,0,2.9724,2.9749,2.9787,2.9834,2.9865,2.9904,2.9945,2.996,3.0022,3.0048,3.0089,3.0118,3.0173,3.0214,3.0261,3.0292,3.0323,3.0329,3.0331,3.032,3.0303,3.0314,3.0346,3.0329,3.033,3.033,3.0331,3.0331,2.9694,2.9713,2.9766,2.9807,2.9844,2.9881,2.9905,2.9946,2.9982,3.0033,3.0061,3.0101,3.0149,3.0216,3.0245,3.0276,3.0288,3.0291,3.0292,3.0292,3.0289,3.0297,3.0285,3.0285,3.0285,3.0285,3.0285,0,2.9666,2.9703,2.974,2.9797,2.9829,2.9858,2.9904,2.9929,2.9964,3.0007,3.0043,3.009,3.013,3.018,3.0224,3.0239,3.0255,3.0249,3.0249,3.0256,3.0275,3.027,3.0236,3.0236,3.0236,3.0236,3.0236,3.0236,2.9656,2.9691,2.9722,2.9775,2.9811,2.9853,2.9877,2.9912,2.9946,2.9998,3.0032,3.0065,3.0111,3.0158,3.0196,3.021,3.0224,3.0214,3.0232,3.025,3.0254,3.0258,3.0254,3.0217,3.0216,3.021,3.021,3.021]}]]